When you browse on this site, cookies collect data to enhance your experience and personalize the content and advertising you see.
Visit our Privacy Policy to learn more. By continuing to use the site, you agree to this use of cookies and data.
  • In Hungary
  • List of Countries
  • For 7 days
  • Water Temperature
  • Satellite Maps
  • Weather Map
  • News
  • Weather Widgets
  • user-avatar
    Login

    Hourly Weather Beinasco

    Today, 15 December, Saturday

    Time Temperature Precipitation Wind Pressure Humidity
    00:00 0°C° 0 mm 1 mps 739 mmHg 63%
    01:00 +1°C° 0 mm 1 mps 739 mmHg 61%
    02:00 +1°C° 0 mm 1 mps 740 mmHg 61%
    03:00 0°C° 0 mm 1 mps 740 mmHg 61%
    04:00 0°C° 0 mm 1 mps 740 mmHg 61%
    05:00 0°C° 0 mm 1 mps 740 mmHg 60%
    06:00 0°C° 0 mm 1 mps 740 mmHg 60%
    07:00 0°C° 0 mm 1 mps 740 mmHg 64%
    08:00 +1°C° 0 mm 1 mps 740 mmHg 62%
    09:00 +2°C° 0 mm 1 mps 740 mmHg 60%
    10:00 +3°C° 0 mm 1 mps 740 mmHg 58%
    11:00 +4°C° 0 mm 1 mps 740 mmHg 58%
    12:00 +5°C° 0 mm 1 mps 740 mmHg 59%
    13:00 +5°C° 0 mm 2 mps 739 mmHg 57%
    14:00 +6°C° 0 mm 1 mps 739 mmHg 60%
    15:00 +5°C° 0 mm 1 mps 739 mmHg 63%
    16:00 +5°C° 0 mm 1 mps 739 mmHg 66%
    17:00 +4°C° 0 mm 1 mps 740 mmHg 67%
    18:00 +4°C° 0 mm 1 mps 740 mmHg 69%
    19:00 +3°C° 0 mm 1 mps 740 mmHg 70%
    20:00 +3°C° 0.2 mm 1 mps 740 mmHg 73%
    21:00 +3°C° 0.2 mm 1 mps 740 mmHg 76%
    22:00 +3°C° 0.2 mm 1 mps 740 mmHg 79%
    23:00 +3°C° 0.6 mm 1 mps 739 mmHg 80%

    Tomorrow, 16 December, Sunday

    Time Temperature Precipitation Wind Pressure Humidity
    00:00 +3°C° 0.6 mm 1 mps 739 mmHg 81%
    01:00 +4°C° 0.6 mm 1 mps 739 mmHg 82%
    02:00 +4°C° 0.6 mm 1 mps 739 mmHg 81%
    03:00 +4°C° 0.6 mm 1 mps 739 mmHg 79%
    04:00 +4°C° 0.6 mm 1 mps 739 mmHg 78%
    05:00 +4°C° 0.2 mm 1 mps 738 mmHg 77%
    06:00 +3°C° 0.2 mm 1 mps 738 mmHg 76%
    07:00 +3°C° 0.2 mm 1 mps 738 mmHg 75%
    08:00 +4°C° 0.2 mm 1 mps 738 mmHg 73%
    09:00 +4°C° 0.2 mm 1 mps 738 mmHg 71%
    10:00 +5°C° 0.2 mm 1 mps 739 mmHg 69%
    11:00 +5°C° 0.2 mm 1 mps 738 mmHg 69%
    12:00 +6°C° 0.2 mm 1 mps 738 mmHg 70%
    13:00 +6°C° 0.2 mm 1 mps 738 mmHg 70%
    14:00 +6°C° 0.2 mm 1 mps 738 mmHg 72%
    15:00 +5°C° 0.2 mm 1 mps 738 mmHg 74%
    16:00 +5°C° 0.2 mm 1 mps 737 mmHg 75%
    17:00 +5°C° 0.3 mm 1 mps 737 mmHg 78%
    18:00 +4°C° 0.3 mm 1 mps 737 mmHg 80%
    19:00 +4°C° 0.3 mm 1 mps 737 mmHg 82%
    20:00 +4°C° 0.6 mm 1 mps 737 mmHg 84%
    21:00 +4°C° 0.6 mm 1 mps 737 mmHg 86%
    22:00 +4°C° 0.6 mm 1 mps 738 mmHg 88%
    23:00 +3°C° 0.1 mm 1 mps 738 mmHg 89%

    Day after tomorrow, 17 December, Monday

    Time Temperature Precipitation Wind Pressure Humidity
    00:00 +3°C° 0.1 mm 1 mps 738 mmHg 89%
    01:00 +3°C° 0.1 mm 1 mps 738 mmHg 89%
    02:00 +3°C° 0 mm 1 mps 738 mmHg 89%
    03:00 +3°C° 0 mm 1 mps 738 mmHg 89%
    04:00 +2°C° 0 mm 1 mps 738 mmHg 89%
    05:00 +2°C° 0 mm 1 mps 739 mmHg 88%
    06:00 +2°C° 0 mm 1 mps 739 mmHg 88%
    07:00 +2°C° 0 mm 1 mps 739 mmHg 88%
    08:00 +3°C° 0.1 mm 1 mps 740 mmHg 86%
    09:00 +3°C° 0.1 mm 2 mps 740 mmHg 84%
    10:00 +4°C° 0.1 mm 2 mps 741 mmHg 82%
    11:00 +5°C° 0 mm 2 mps 741 mmHg 79%
    12:00 +6°C° 0 mm 2 mps 741 mmHg 76%
    13:00 +7°C° 0 mm 2 mps 742 mmHg 73%
    14:00 +7°C° 0 mm 2 mps 742 mmHg 74%
    15:00 +6°C° 0 mm 2 mps 742 mmHg 75%
    16:00 +7°C° 0 mm 1 mps 743 mmHg 76%
    17:00 +5°C° 0 mm 2 mps 743 mmHg 75%
    18:00 +4°C° 0 mm 2 mps 744 mmHg 73%
    19:00 +3°C° 0 mm 2 mps 745 mmHg 72%
    20:00 +3°C° 0 mm 2 mps 746 mmHg 68%
    21:00 +2°C° 0 mm 2 mps 746 mmHg 65%
    22:00 +2°C° 0 mm 2 mps 746 mmHg 61%
    23:00 +2°C° 0 mm 2 mps 747 mmHg 59%

    18 December, Tuesday

    Time Temperature Precipitation Wind Pressure Humidity
    00:00 +2°C° 0 mm 2 mps 747 mmHg 56%
    01:00 +2°C° 0 mm 2 mps 747 mmHg 53%
    02:00 +2°C° 0 mm 2 mps 747 mmHg 52%
    03:00 +2°C° 0 mm 2 mps 746 mmHg 51%
    04:00 +3°C° 0 mm 1 mps 746 mmHg 50%
    05:00 +3°C° 0 mm 1 mps 746 mmHg 50%
    06:00 +3°C° 0 mm 1 mps 746 mmHg 51%
    07:00 +3°C° 0 mm 1 mps 746 mmHg 51%
    08:00 +4°C° 0 mm 1 mps 747 mmHg 52%
    09:00 +5°C° 0 mm 1 mps 747 mmHg 53%
    10:00 +6°C° 0 mm 1 mps 747 mmHg 54%
    11:00 +7°C° 0 mm 1 mps 746 mmHg 56%
    12:00 +8°C° 0 mm 1 mps 746 mmHg 57%
    13:00 +9°C° 0 mm 1 mps 746 mmHg 58%
    14:00 +8°C° 0 mm 1 mps 745 mmHg 62%
    15:00 +7°C° 0 mm 1 mps 745 mmHg 67%
    16:00 +6°C° 0 mm 1 mps 745 mmHg 71%
    17:00 +6°C° 0 mm 1 mps 745 mmHg 70%
    18:00 +5°C° 0 mm 1 mps 745 mmHg 69%
    19:00 +4°C° 0 mm 1 mps 745 mmHg 69%
    20:00 +4°C° 0 mm 1 mps 745 mmHg 68%
    21:00 +5°C° 0 mm 1 mps 745 mmHg 67%
    22:00 +5°C° 0 mm 1 mps 745 mmHg 67%
    23:00 +5°C° 0 mm 1 mps 745 mmHg 67%

    19 December, Wednesday

    Time Temperature Precipitation Wind Pressure Humidity
    00:00 +5°C° 0 mm 1 mps 745 mmHg 67%
    01:00 +5°C° 0 mm 1 mps 745 mmHg 67%
    02:00 +5°C° 0 mm 1 mps 744 mmHg 68%
    03:00 +5°C° 0 mm 1 mps 744 mmHg 69%
    04:00 +5°C° 0 mm 1 mps 744 mmHg 70%
    05:00 +5°C° 0 mm 1 mps 743 mmHg 71%
    06:00 +5°C° 0 mm 1 mps 743 mmHg 71%
    07:00 +5°C° 0 mm 1 mps 743 mmHg 72%
    08:00 +5°C° 0 mm 1 mps 743 mmHg 73%
    09:00 +6°C° 0 mm 1 mps 743 mmHg 73%
    10:00 +6°C° 0 mm 1 mps 743 mmHg 74%
    11:00 +7°C° 0 mm 1 mps 743 mmHg 74%
    12:00 +7°C° 0 mm 1 mps 742 mmHg 75%
    13:00 +7°C° 0 mm 2 mps 742 mmHg 75%
    14:00 +7°C° 0.2 mm 1 mps 742 mmHg 78%
    15:00 +7°C° 0.2 mm 1 mps 741 mmHg 81%
    16:00 +7°C° 0.2 mm 1 mps 741 mmHg 84%
    17:00 +6°C° 0.4 mm 1 mps 741 mmHg 85%
    18:00 +6°C° 0.4 mm 1 mps 741 mmHg 86%
    19:00 +5°C° 0.4 mm 1 mps 741 mmHg 87%
    20:00 +5°C° 1.4 mm 1 mps 741 mmHg 89%
    21:00 +5°C° 1.4 mm 1 mps 741 mmHg 90%
    22:00 +5°C° 1.4 mm 1 mps 741 mmHg 91%
    23:00 +5°C° 1.7 mm 1 mps 741 mmHg 92%

    20 December, Thursday

    Time Temperature Precipitation Wind Pressure Humidity
    00:00 +5°C° 1.7 mm 1 mps 740 mmHg 93%
    01:00 +5°C° 1.7 mm 1 mps 740 mmHg 93%
    02:00 +5°C° 1.1 mm 1 mps 740 mmHg 94%
    03:00 +5°C° 1.1 mm 1 mps 740 mmHg 94%
    04:00 +5°C° 1.1 mm 1 mps 740 mmHg 94%
    05:00 +5°C° 0.7 mm 1 mps 740 mmHg 94%
    06:00 +5°C° 0.7 mm 1 mps 740 mmHg 94%
    07:00 +5°C° 0.7 mm 1 mps 740 mmHg 94%
    08:00 +5°C° 0.5 mm 1 mps 740 mmHg 93%
    09:00 +5°C° 0.5 mm 1 mps 741 mmHg 92%
    10:00 +6°C° 0.5 mm 1 mps 741 mmHg 91%
    11:00 +6°C° 0.2 mm 1 mps 741 mmHg 90%
    12:00 +6°C° 0.2 mm 2 mps 741 mmHg 89%
    13:00 +6°C° 0.2 mm 2 mps 741 mmHg 88%
    14:00 +6°C° 0 mm 2 mps 741 mmHg 88%
    15:00 +6°C° 0 mm 2 mps 741 mmHg 89%
    16:00 +5°C° 0 mm 2 mps 741 mmHg 89%
    17:00 +4°C° 0 mm 2 mps 742 mmHg 86%
    18:00 +3°C° 0 mm 3 mps 742 mmHg 83%
    19:00 +2°C° 0 mm 3 mps 743 mmHg 80%
    20:00 +2°C° 0 mm 3 mps 743 mmHg 77%
    21:00 +2°C° 0 mm 3 mps 744 mmHg 74%
    22:00 +1°C° 0 mm 3 mps 744 mmHg 72%
    23:00 +1°C° 0 mm 3 mps 744 mmHg 70%
    Show more